Location: Curupao
(10.4996°N, 66.6442°W)
Time: 01:16:25
(UTC+00:00)

Cosmos 1339 Rocket - Pass Details

Date: 23 May 2024
Orbit: 942 x 1004 km, 82.9° (Epoch: 12 June)

Event Time Altitude Azimuth Distance (km) Brightness Sun altitude
Rises 08:40:10 0° 352° (N) 3,710 7.8 -19.6°
Reaches altitude 10° 08:42:42 10° 350° (N) 2,765 7.1 -19.1°
Maximum altitude 08:49:01 69° 268° (W) 1,065 4.5 -17.7°
Drops below altitude 10° 08:55:21 10° 185° (S) 2,769 6.6 -16.3°
Sets 08:57:53 0° 182° (S) 3,715 7.3 -15.7°
